TimeCST,TemperatureF,Dew PointF,Humidity,Sea Level PressureIn,VisibilityMPH,Wind Direction,Wind SpeedMPH,Gust SpeedMPH,PrecipitationIn,Events,Conditions,WindDirDegrees,DateUTC
12:56 AM,27.0,12.9,56,30.03,10.0,SW,16.1,-,N/A,,Mostly Cloudy,220,2013-11-25 06:56:00
1:56 AM,27.0,15.1,61,30.00,10.0,SW,15.0,21.9,N/A,,Partly Cloudy,220,2013-11-25 07:56:00
2:56 AM,27.0,16.0,63,29.98,10.0,SW,13.8,24.2,N/A,,Clear,220,2013-11-25 08:56:00
3:56 AM,28.0,16.0,61,29.96,10.0,SW,15.0,25.3,N/A,,Mostly Cloudy,220,2013-11-25 09:56:00
4:56 AM,28.0,17.1,63,29.96,10.0,SW,12.7,-,N/A,,Overcast,220,2013-11-25 10:56:00
5:56 AM,28.0,18.0,66,29.94,10.0,SW,17.3,26.5,N/A,,Overcast,220,2013-11-25 11:56:00
6:56 AM,28.0,19.0,69,29.95,10.0,SW,12.7,-,N/A,,Mostly Cloudy,230,2013-11-25 12:56:00
7:36 AM,28.4,19.4,69,29.91,10.0,SW,13.8,20.7,N/A,,Overcast,230,2013-11-25 13:36:00
7:56 AM,28.9,19.9,69,29.95,10.0,SW,12.7,21.9,N/A,,Overcast,230,2013-11-25 13:56:00
8:56 AM,30.0,21.0,69,29.96,10.0,SW,12.7,20.7,N/A,,Overcast,230,2013-11-25 14:56:00
9:32 AM,30.2,21.2,69,29.92,10.0,SW,12.7,-,N/A,,Overcast,230,2013-11-25 15:32:00
9:56 AM,30.9,21.9,69,29.96,10.0,SW,15.0,-,N/A,,Overcast,230,2013-11-25 15:56:00
10:56 AM,34.0,24.1,67,29.95,10.0,WSW,13.8,20.7,N/A,,Partly Cloudy,240,2013-11-25 16:56:00
11:56 AM,37.0,26.1,65,29.94,10.0,WSW,16.1,20.7,N/A,,Partly Cloudy,250,2013-11-25 17:56:00
12:56 PM,37.9,26.1,62,29.94,10.0,West,11.5,18.4,N/A,,Overcast,280,2013-11-25 18:56:00
1:56 PM,37.9,26.1,62,29.94,10.0,West,12.7,18.4,N/A,,Overcast,270,2013-11-25 19:56:00
2:56 PM,37.0,25.0,62,29.96,10.0,West,10.4,23.0,N/A,,Mostly Cloudy,270,2013-11-25 20:56:00
3:56 PM,37.0,25.0,62,29.98,10.0,West,10.4,20.7,N/A,,Overcast,280,2013-11-25 21:56:00
4:56 PM,36.0,23.0,59,30.00,10.0,West,11.5,-,N/A,,Overcast,270,2013-11-25 22:56:00
5:56 PM,36.0,24.1,62,30.01,10.0,West,10.4,-,N/A,,Overcast,270,2013-11-25 23:56:00
6:56 PM,35.1,24.1,64,30.02,10.0,WSW,8.1,-,N/A,,Overcast,250,2013-11-26 00:56:00
7:56 PM,35.1,25.0,67,30.02,10.0,West,9.2,-,N/A,,Overcast,260,2013-11-26 01:56:00
8:56 PM,36.0,24.1,62,30.00,10.0,West,12.7,-,N/A,,Overcast,280,2013-11-26 02:56:00
9:56 PM,35.1,24.1,64,30.00,10.0,West,12.7,18.4,N/A,,Overcast,280,2013-11-26 03:56:00
10:56 PM,34.0,21.0,59,30.01,10.0,NW,13.8,21.9,N/A,,Overcast,310,2013-11-26 04:56:00
11:56 PM,32.0,19.0,59,30.03,10.0,WNW,16.1,21.9,N/A,,Overcast,290,2013-11-26 05:56:00